Hourly Data Report for October 05, 2016

All times are specified in Local Standard Time (LST). Add 1 hour to adjust for Daylight Saving Time where and when it is observed.

KUGLUKTUK A
NUNAVUT

67°49'00.000" N
115°08'38.000" W
22.60 m
2300903
71938
YCO

Download Data

Hourly Data (October 2016)
Hourly Data Report for October 5, 2016
Temp Definition
°C
Dew Point Temp Definition
°C
Rel Hum Definition
%
Wind Dir Definition
10's deg

Wind Spd Definition
km/h
Visibility Definition
km
Stn Press Definition
kPa
Hmdx Definition


Wind Chill Definition


Weather Definition


TIME
00:00 Legend Double Dagger -6.3 -8.1 87 23 20 24.1 102.37   -13 LegendNANA
01:00 Legend Double Dagger -4.7 -6.9 85 23 18 24.1 102.38   -11 LegendNANA
02:00 Legend Double Dagger -3.9 -6.1 85 21 14 24.1 102.39   -9 Cloudy
03:00 Legend Double Dagger -2.9 -5.2 84 20 13 24.1 102.37   -8 LegendNANA
04:00 Legend Double Dagger -2.5 -4.8 84 20 13 24.1 102.34   -7 LegendNANA
05:00 Legend Double Dagger -1.8 -4.6 81 22 14 24.1 102.34   -6 Cloudy
06:00 Legend Double Dagger -1.0 -4.0 80 22 15 24.1 102.36   -6 LegendNANA
07:00 Legend Double Dagger -1.4 -3.8 84 22 14 24.1 102.37   -6 LegendNANA
08:00 Legend Double Dagger -1.2 -3.6 84 22 13 24.1 102.37   -5 Cloudy
09:00 Legend Double Dagger -0.6 -3.1 83 22 12 24.1 102.38   -5 Snow Grains
10:00 Legend Double Dagger -0.3 -2.8 83 28 10 24.1 102.38   -4 Snow Grains
11:00 Legend Double Dagger -0.2 -3.1 81 29 8 24.1 102.37   -3 Snow Grains
12:00 Legend Double Dagger -0.1 -2.6 83 21 7 24.1 102.37   -3 LegendNANA
13:00 Legend Double Dagger 0.4 -2.0 84 23 4 24.1 102.37     LegendNANA
14:00 Legend Double Dagger 0.7 -1.5 85 26 6 24.1 102.36     Snow Grains
15:00 Legend Double Dagger 0.8 -1.0 88 19 8 24.1 102.34     LegendNANA
16:00 Legend Double Dagger 0.7 -1.5 85 23 17 24.1 102.33     LegendNANA
17:00 Legend Double Dagger 0.3 -1.5 88 21 18 19.3 102.32     Snow Grains
18:00 Legend Double Dagger 0.3 -2.3 83 22 12 24.1 102.32     LegendNANA
19:00 Legend Double Dagger 0.3 -2.3 83 21 17 19.3 102.32     LegendNANA
20:00 Legend Double Dagger 0.0 -2.4 84 23 13 24.1 102.34   -4 Mostly Cloudy
21:00 Legend Double Dagger 0.1 -2.3 84 22 16 19.3 102.34     Snow
22:00 Legend Double Dagger 0.0 -2.4 84 23 12 16.1 102.31   -4 Snow
23:00 Legend Double Dagger 0.1 -2.6 82 21 14 19.3 102.28     Snow

Notes on Data Quality.

Legend

  • E = Estimated
  • M = Missing
  • NA = Not Available
  • ‡ = Partner data that is not subject to review by the National Climate Archives
Date modified: